Location: Newark
(54.2500°N, 9.1833°E)
Time: 05:23:41
(UTC+00:00)

Vanguard 2 Rocket - Pass Details

Date: 10 December 2019
Orbit: 554 x 3326 km, 32.9° (Epoch: 20 January)

Event Time Altitude Azimuth Distance (km) Brightness Sun altitude
Rises 18:04:08 0° 229° (SW) 6,197 12.0 -25.4°
Reaches altitude 10° 18:10:28 10° 214° (SW) 4,604 10.9 -26.3°
Maximum altitude 18:17:23 18° 179° (S) 3,293 9.7 -27.3°
Enters shadow 18:20:43 14° 154° (SSE) 3,150 9.4 -27.8°
